Content
SEND FEEDBACK

Daily
Averages
Monthly
Summary
United Kingdom

POTTON, ENGLAND


Home > Europe > United Kingdom > England
Elevation: 170 feet     Latitude: 52 01N     Longitude: 000 17W

WEATHER
 
SELECT A DAY
Number of Records: 289,164;   Date Range: 7/1/96 - 7/20/14
 
SHARE

PRINT THIS DATA

[ ← Previous Day ]
WEATHER ALMANAC - OCTOBER 12, 2013
[ Next Day → ]
[ °C ]   °F
Weather ElementAverageHighLow
Temperature51.3 °F53.6 °F (1:20 am)48.2 °F (7:50 am)
Dewpoint48.7 °F53.6 °F (5:20 am)46.4 °F (10:50 am)
Humidity91.4 %100 % (12:50 am)77 % (12:50 pm)
Barometer30.06 in30.12 in (9:20 am)30.01 in (3:50 am)
Wind Speed10.3 mph24.2 mph (1:20 am)
Weather ElementAverage
Visibility5.5 mi
Wind DirectionESE (102.8 °)

Weather ElementTotal
Precipitation---
Heating Degree Days14.1 (Base 65)
Growing Degree Days0.9 (Base 50)
Averaged from 47 records on October 12, 2013
WEATHER CONDITIONS BREAKOUT
WIND DIRECTION BREAKOUT
WEATHER BY HOUR - OCTOBER 12, 2013
[ °C ]   °F
Local TimeTemperatureDewpointHumidityBarometerVisibilityWind DirectionWind SpeedGust SpeedPrecipitationEventsConditions
12:50 AM51.8 °F51.8 °F100 %30.06 in6.2 miNNE (20°)20.7 mphOvercast
1:20 AM53.6 °F51.8 °F94 %30.06 in6.2 miNorth (10°)24.2 mphOvercast
1:50 AM53.6 °F51.8 °F94 %30.06 in6.2 miNNE (20°)21.9 mphOvercast
2:20 AM53.6 °F51.8 °F94 %30.04 in5.6 miNNE (20°)21.9 mphOvercast
2:50 AM53.6 °F51.8 °F94 %30.04 in3.7 miNorth (10°)21.9 mphMostly Cloudy
3:20 AM51.8 °F51.8 °F100 %30.04 inNorth (10°)21.9 mphDrizzle
3:50 AM51.8 °F51.8 °F100 %30.01 inNorth (10°)20.7 mphRainRain
4:20 AM51.8 °F51.8 °F100 %30.01 in3.1 miNNE (20°)19.6 mphRainLight Rain
4:50 AM51.8 °F51.8 °F100 %30.01 in2.5 miNNE (20°)19.6 mphDrizzle
5:20 AM53.6 °F53.6 °F100 %30.01 in1.9 miNNE (20°)18.4 mphRainLight Rain
5:50 AM53.6 °F53.6 °F100 %30.01 in1.9 miNNE (30°)17.3 mphDrizzle
6:20 AM53.6 °F53.6 °F100 %30.04 in2.8 miNE (50°)15.0 mphRainLight Rain
6:50 AM50.0 °F50.0 °F100 %30.04 in3.1 miEast (100°)11.5 mphRainLight Rain
7:20 AM50.0 °F50.0 °F100 %30.06 in6.2 miESE (110°)10.4 mphRainLight Rain
7:50 AM48.2 °F48.2 °F100 %30.06 in6.2 miEast (100°)6.9 mphMostly Cloudy
8:20 AM48.2 °F48.2 °F100 %30.09 in6.2 miEast (90°)6.9 mphMostly Cloudy
8:50 AM48.2 °F48.2 °F100 %30.09 in6.2 miEast (100°)9.2 mphMostly Cloudy
9:20 AM48.2 °F48.2 °F100 %30.12 in6.2 miESE (110°)6.9 mphMostly Cloudy
9:50 AM48.2 °F48.2 °F100 %30.12 in6.2 miEast (90°)3.5 mphMostly Cloudy
10:20 AM51.8 °F48.2 °F88 %30.12 in6.2 miNE (50°)5.8 mphScattered Clouds
10:50 AM50.0 °F46.4 °F87 %30.12 in6.2 miNE (50°)5.8 mphMostly Cloudy
11:20 AM50.0 °F48.2 °F94 %30.12 in6.2 miNE (50°)5.8 mphMostly Cloudy
11:50 AM51.8 °F46.4 °F82 %30.12 in6.2 miEast (100°)6.9 mphMostly Cloudy
12:20 PM51.8 °F46.4 °F82 %30.12 in6.2 miENE (60°)6.9 mphPartly Cloudy
12:50 PM53.6 °F46.4 °F77 %30.12 in6.2 miVariable6.9 mphMostly Cloudy
1:20 PM53.6 °F46.4 °F77 %30.12 in6.2 miNE (50°)8.1 mphMostly Cloudy
1:50 PM53.6 °F46.4 °F77 %30.12 in6.2 miNE (40°)8.1 mphMostly Cloudy
2:20 PM53.6 °F46.4 °F77 %30.12 in6.2 miNNE (30°)4.6 mphMostly Cloudy
2:50 PM53.6 °F46.4 °F77 %30.09 in6.2 miNNE (30°)5.8 mphPartly Cloudy
3:20 PM53.6 °F46.4 °F77 %30.09 in6.2 miVariable3.5 mphPartly Cloudy
3:50 PM53.6 °F46.4 °F77 %30.09 in6.2 miNNE (20°)4.6 mphPartly Cloudy
4:20 PM53.6 °F46.4 °F77 %30.06 in6.2 miVariable3.5 mphPartly Cloudy
4:50 PM51.8 °F46.4 °F82 %30.06 inNorth (10°)3.5 mphClear
5:20 PM51.8 °F46.4 °F82 %30.06 inVariable3.5 mphClear
5:50 PM51.8 °F46.4 °F82 %30.06 inCalmClear
6:20 PM51.8 °F46.4 °F82 %30.06 in6.2 miNW (310°)3.5 mphDrizzle
6:50 PM50.0 °F48.2 °F94 %30.06 inWNW (290°)5.8 mphClear
7:20 PM50.0 °F46.4 °F87 %30.06 inWNW (290°)5.8 mphClear
7:50 PM50.0 °F46.4 °F87 %30.06 in6.2 miWNW (290°)5.8 mphMostly Cloudy
8:20 PM50.0 °F48.2 °F94 %30.04 in6.2 miWNW (290°)6.9 mphRainLight Rain
8:50 PM50.0 °F48.2 °F94 %30.04 in6.2 miWNW (290°)10.4 mphRainLight Rain
9:20 PM50.0 °F48.2 °F94 %30.04 in6.2 miWNW (290°)10.4 mphDrizzle
9:50 PM50.0 °F48.2 °F94 %30.04 in5.0 miWest (280°)8.1 mphDrizzle
10:20 PM48.2 °F48.2 °F100 %30.01 in5.6 miWest (270°)8.1 mphLight Drizzle
10:50 PM50.0 °F50.0 °F100 %30.01 inWest (270°)11.5 mphClear
11:20 PM48.2 °F48.2 °F100 %30.01 inWest (270°)12.7 mphClear
11:50 PM48.2 °F48.2 °F100 %30.01 in6.2 miWest (260°)13.8 mphMostly Cloudy
Hourly data recorded from EGGW, located miles away from Potton, England







STORIES FROM OUR PARTNERS